Pour une meilleure expérience, merci d'orienter votre écran en mode paysage.

rotate

Club de Triathlon : TRIATHL'AIX

Le club de Triathlon TRIATHL'AIX se situe dans la ville de AIX EN PROVENCE (13 - Bouches-du-Rhône). Le club est affilié à la ligue régionale PROVENCE-ALPES-CÔTE D'AZUR de la FFTRI - Fédération Française de Triathlon. Retrouvez ici toute l'activité du club de Triathlon TRIATHL'AIX - Résultats, podiums, objectifs, effectifs....

Site internet : https://www.triathlaix.fr

Page Facebook : https://www.facebook.com/triathl.aix/

Résultats de la saison en cours

CltClt FDateEpreuveNomIPRNbTempsGAClt/GAIP
238 16/10/2022Triathlon de Saint Cyr sur Mer (83) - M Frederic LUU343613h14'08''MV41633Sa course
21116/10/2022Triathlon de Saint Cyr sur Mer (83) - L Candice MIZON89955h18'25''FSE179Sa course
21 16/10/2022Triathlon de Saint Cyr sur Mer (83) - M Valentin MONTPIED973612h29'50''MSE1498Sa course
19 16/10/2022Triathlon de Saint Cyr sur Mer (83) - M Maxime DUPARC1283612h28'33''MSE1299Sa course
44 16/10/2022Triathlon de Saint Cyr sur Mer (83) - M Aurélien DRUMEZ843612h39'40''MSE3090Sa course
109516/10/2022Triathlon de Saint Cyr sur Mer (83) - M Christelle PUCCI583612h52'42''FSE470Sa course
28 16/10/2022Triathlon de Saint Cyr sur Mer (83) - L Romain LACAILLE77955h28'20''MVE1571Sa course
4 16/10/2022Triathlon de Saint Cyr sur Mer (83) - L Sebastien RODRIGUEZ167954h37'02''MSE2134Sa course
132 09/10/2022Sardines Titus Triathlon (13) - M Hubert PIALOT654853h02'05''MV31273Sa course
4245909/10/2022Sardines Titus Triathlon (13) - M Emmanuelle DEL NEGRO84853h56'05''FV3610Sa course
60 09/10/2022Sardines Titus Triathlon (13) - M Romain LACAILLE774852h49'51''MV1789Sa course
1 09/10/2022Sardines Titus Triathlon (13) - M Brice HACQUART2314852h08'49''MSE1357Sa course
5 09/10/2022Sardines Titus Triathlon (13) - M Erwan JACOBI2884852h15'49''MSE5211Sa course
1 08/10/2022Sardines Titus Triathlon (13) - Aquathlon XS Julien MONNIER07414'50''MC1 1169Sa course
41 08/10/2022Sardines Titus Triathlon (13) - Aquathlon XS François BOULESTEIX07419'14''M SM 447Sa course
11 02/10/2022Triathlon de Carqueiranne (83) - S Valentin MONTPIED972991h12'53''MS22104Sa course
42 25/09/2022Triathlon de la Corniche d'Or (83) - M Simon ROUSSE954972h28'12''MS31294Sa course
2 25/09/2022ExtremeMan (11) - Triathlon L Brice HACQUART2311203h54'42''MS11180Sa course
1191425/09/2022ExtremeMan (11) - Triathlon S Clémentine TIRARD02032h00'38''FS2642Sa course
4557425/09/2022Triathlon de la Corniche d'Or (83) - M Emmanuelle DEL NEGRO84973h31'04''FV3107Sa course
1 24/09/2022Triathlon Sud Vendée (85) - L Nathan MENANT3043853h46'17''MS11320Sa course
87818/09/2022VentouxMan (84) - Triathlon L Jil GUEGUEN CLOIX713036h55'37''FS4472Sa course
13 11/09/2022Triathlon du Champsaur (05) - M Thomas SUZON961992h50'02''MS3399Sa course
25 11/09/2022GNT Events : LEUKOS Olympie Triathlon (11) - L David TÉTART43346h26'47''MVE1330Sa course
107 11/09/2022Triathlon du Champsaur (05) - M Francois PARCHEMIN531993h25'33''MS41647Sa course
7 11/09/2022Triathlon de Hyères (83) - M Sebastien RODRIGUEZ1672942h52'19''MS45144Sa course
63 11/09/2022Triathlon du Champsaur (05) - M Benoit FAURE01993h11'41''MS3870Sa course
167 11/09/2022Triathlon de Hyères (83) - M Frederic LUU342943h48'17''MV42142Sa course
15 11/09/2022Triathlon du Champsaur (05) - M Simon ROUSSE951992h53'49''MS3497Sa course
5 04/09/2022Triathlon de Villevêque (49) - M Nathan MENANT3041542h05'53''MSE1142Sa course
DNF 21/08/2022IronMan de Vichy (03) - Triathlon XXL Sebastien RODRIGUEZ167964M35-39 Sa course
165 20/08/2022Triathlon de la Madeleine (73) - XL Francois PARCHEMIN532119h45'05''MS42316Sa course
80 20/08/2022Triathlon de la Madeleine (73) - M Benoit FAURE02794h15'17''MS31871Sa course
140 20/08/2022Triathlon de la Madeleine (73) - M Arthur RIVIERE492794h39'27''MS23648Sa course
2414420/08/2022Triathlon de la Madeleine (73) - M Gaëlle NARDIN132795h40'51''FS2119Sa course
314 20/08/2022Triathlon du Mont Blanc (74) - M Quentin GAUTHIER285433h19'23''042Sa course
5 20/08/2022IronMan 70.3 de Vichy (03) - Triathlon L Erwan JACOBI28820403h27'04''MPRO5401Sa course
141 20/08/2022Triathlon de la Madeleine (73) - M Hubert PIALOT652794h40'12''MV3747Sa course
2471620/08/2022IronMan 70.3 de Vichy (03) - Triathlon L Candice MIZON8920404h10'58''F35-39189Sa course
50 20/08/2022Triathlon de la Madeleine (73) - XL Clément PERISSE02117h55'27''MS21276Sa course
DNF 20/08/2022Triathlon de la Madeleine (73) - XL François BOULESTEIX0211MS3 Sa course
149 14/07/2022Triathlon du Haut Languedoc (34) - Championnat de France de Triathlon L François BOULESTEIX02675h48'05''MS32236Sa course
2 14/07/2022Triathlon du Haut Languedoc (34) - Championnat de France de Triathlon L Brice HACQUART2312674h12'08''MS11236Sa course
107 14/07/2022Triathlon du Haut Languedoc (34) - Championnat de France de Triathlon L Aurélien DRUMEZ842675h17'32''MS31654Sa course
46 13/07/2022Triathlon du Haut Languedoc (34) - S François BOULESTEIX01171h23'36''062Sa course
1 13/07/2022Triathlon du Haut Languedoc (34) - S Brice HACQUART2311171h03'40''0198Sa course
3 11/07/2022FitDays de Nages (81) - Triathlon M Brice HACQUART231892h05'06''MSE3150Sa course
1 10/07/2022Triathlon du Mans (72) - M Nathan MENANT3042171h59'23''MSE1248Sa course
2181909/07/2022Triathlon des Gorges - Ardèche et Gard (07) - L Christelle PUCCI584623h51'02''FS4452Sa course
152 09/07/2022Triathlon des Gorges - Ardèche et Gard (07) - L Hubert PIALOT654623h40'30''MV31467Sa course
81 09/07/2022Triathlon des Gorges - Ardèche et Gard (07) - L Jules GAUTIER834623h27'02''MS21883Sa course
375 07/07/2022Triathlon des Gorges - Ardèche et Gard (07) - M Quentin GAUTHIER285862h28'38''MSE16536Sa course
97 07/07/2022Triathlon des Gorges - Ardèche et Gard (07) - M Jules GAUTIER835862h04'38''MSE6485Sa course
3465303/07/2022Triathlon d'Embrun (05) - L Gaëlle NARDIN134117h22'44''FS21311Sa course
8 03/07/2022IronMan 70.3 des Sables d'Olonne (85) - L Erwan JACOBI28822933h49'00''MPRO8278Sa course
309 03/07/2022Triathlon d'Embrun (05) - L Anthony PERON284117h02'21''MS33820Sa course
117 03/07/2022Triathlon d'Embrun (05) - L Olivier DOMINGUEZ804115h48'51''MV21071Sa course
212928703/07/2022IronMan 70.3 des Sables d'Olonne (85) - L Emmanuelle DEL NEGRO822936h55'03''F50-54345Sa course
229 03/07/2022Triathlon d'Embrun (05) - L Pascal LALLEMAND364116h26'12''MV31841Sa course
65 03/07/2022Triathlon d'Embrun (05) - L Aurélien DRUMEZ844115h27'51''MS31685Sa course
208 03/07/2022Triathlon d'Embrun (05) - L Francois PARCHEMIN534116h19'56''MS43647Sa course
14 03/07/2022IronMan 70.3 des Sables d'Olonne (85) - L Nathan MENANT30422933h53'52''MPRO14115Sa course
122802/07/2022Triathlon d'Embrun (05) - M Jil GUEGUEN CLOIX715572h59'06''FS4378Sa course
68402/07/2022Triathlon d'Embrun (05) - M Candice MIZON895572h51'46''FS4289Sa course
265 02/07/2022Triathlon d'Embrun (05) - M Jean christophe DUCASSE05573h14'43''MV41751Sa course
428 02/07/2022Triathlon d'Embrun (05) - M Quentin GAUTHIER285573h38'36''MS12521Sa course
4 02/07/2022Triathlon d'Embrun (05) - M Sebastien RODRIGUEZ1675572h28'44''MS41252Sa course
6 02/07/2022Triathlon d'Embrun (05) - M Maxime DUPARC1285572h30'23''MS22191Sa course
13 25/06/2022Aquathlon des Oranges Pressées (84) - S Julien MONNIER010732'53''092Sa course
5 19/06/2022Triathlon de Carpentras (84) - S en CLM Julien MONNIER01741h01'59''MCa1149Sa course
43 19/06/2022Triathlon de Carpentras (84) - S en CLM Valentin MONTPIED971741h07'42''MS2677Sa course
69 19/06/2022Triathlon de Carpentras (84) - S en CLM Christophe DUMAS01741h09'58''MS31361Sa course
1401005/06/2022TriGames - Cagnes-Sur-Mer (06) - M Christelle PUCCI584233h05'06''FS4367Sa course
18 05/06/2022TriGames - Cagnes-Sur-Mer (06) - M Simon ROUSSE954232h40'40''MS31101Sa course
23 05/06/2022TriGames - Cagnes-Sur-Mer (06) - M Maxime DUPARC1284232h44'12''MS2899Sa course
156 05/06/2022TriGames - Cagnes-Sur-Mer (06) - L Frederic LUU342036h59'49''MV41117Sa course
76 29/05/2022Triathlon de l'Ail (84) - S Christophe DUMAS02081h04'24''HS31864Sa course
22 29/05/2022Triathlon de l'Ail (84) - S Valentin MONTPIED9720859'27''HS2493Sa course
175 28/05/2022Triathlon de Dijon (21) - M Pascal LALLEMAND363362h36'56''MVE6648Sa course
28328/05/2022Triathlon de Porticcio (20) - L Pauline AVRONSART01006h23'41''FSE271Sa course
259 28/05/2022Triathlon de Dijon (21) - M Quentin GAUTHIER283362h50'35''MSE12122Sa course
2 27/05/2022FrenchMan Triathlon - Carcans (33) - L Nathan MENANT3049663h45'11''MS11439Sa course
132 22/05/2022Half IronMan 70.3 d'Aix en Provence (13) - Triathlon L Simon ROUSSE9518564h43'20''M30-342494Sa course
173625322/05/2022Half IronMan 70.3 d'Aix en Provence (13) - Triathlon L Emmanuelle DEL NEGRO818567h26'53''F50-54244Sa course
53 22/05/2022IronMan d'Aix en Provence (13) - Triathlon XXL Aurélien DRUMEZ8444810h16'10''M30-341489Sa course
8 22/05/2022Half IronMan 70.3 d'Aix en Provence (13) - Triathlon L Nathan MENANT30418563h59'05''MPRO8253Sa course
264 22/05/2022IronMan d'Aix en Provence (13) - Triathlon XXL Francois PARCHEMIN5344812h59'39''M35-394334Sa course
15 22/05/2022IronMan d'Aix en Provence (13) - Triathlon XXL Sebastien RODRIGUEZ1674489h34'31''M35-397103Sa course
287 22/05/2022IronMan d'Aix en Provence (13) - Triathlon XXL Pascal LALLEMAND3644813h23'48''M50-543328Sa course
5 22/05/2022Half IronMan 70.3 d'Aix en Provence (13) - Triathlon L Erwan JACOBI28818563h56'49''MPRO5381Sa course
DNF 22/05/2022IronMan d'Aix en Provence (13) - Triathlon XXL Romain LACAILLE77448M40-44 Sa course
199 15/05/2022TriGames de Fréjus (83) - Triathlon M David TÉTART433452h25'42''MV23042Sa course
30 15/05/2022TriGames de Fréjus (83) - Triathlon M Thomas SUZON963452h03'39''MS3894Sa course
18 15/05/2022Triathlon de La Ciotat (13) - S Valentin MONTPIED972011h11'57''MS2495Sa course
7 14/05/2022TriGames de Fréjus (83) - Triathlon S Julien MONNIER028658'38''MCa2144Sa course
2 08/05/2022Triathlon de Vins-sur-Caramy (83) - M Sebastien RODRIGUEZ167932h06'27''0167Sa course
30 08/05/2022Triathlon de la Côte Bleue (13) - M Valentin MONTPIED973362h06'43''MS2894Sa course
2632908/05/2022Triathlon de la Côte Bleue (13) - M Gaëlle NARDIN133362h48'17''FS2820Sa course
2 08/05/2022Triathlon de Sète - Trophée Laurent VIDAL (34) - S Brice HACQUART23141951'46''MS11306Sa course
14 08/05/2022Triathlon de la Côte Bleue (13) - M Aurélien DRUMEZ843362h00'59''MS34102Sa course
1831608/05/2022Triathlon de la Côte Bleue (13) - M Christelle PUCCI583362h30'50''FS4244Sa course
265 08/05/2022Triathlon de la Côte Bleue (13) - M Quentin GAUTHIER283362h48'25''MS1719Sa course
690 01/05/2022Triathlon de Cannes (06) - L Pascal LALLEMAND369586h01'05''MV39725Sa course
296 01/05/2022Triathlon de Cannes (06) - L Romain LACAILLE779585h13'23''MV13568Sa course
511 01/05/2022Triathlon de Cannes (06) - L Francois PARCHEMIN539585h36'39''MS47245Sa course
413 01/05/2022Triathlon de Cannes (06) - L Hubert PIALOT659585h27'33''MV34655Sa course
257 01/05/2022Triathlon de Cannes (06) - L Olivier DOMINGUEZ809585h08'47''MV23373Sa course
78716530/04/2022Triathlon de Cannes (06) - M Emmanuelle DEL NEGRO89063h03'16''FV3811Sa course
381 30/04/2022Triathlon de Cannes (06) - M David TÉTART439062h25'28''MV23257Sa course
105 24/04/2022Triathlon de Saint Tropez (83) - S Frederic LUU342091h28'23''MV4649Sa course
45 24/04/2022Triathlon de Saint Tropez (83) - S Thomas SUZON962091h17'49''MS3780Sa course
83 03/04/2022Duathlon de Valence (26) - S Aurélien DRUMEZ843321h03'08''MD36175Sa course
129 03/04/2022Duathlon de Valence (26) - S Théo CABARDOS03321h06'07''MD38460Sa course
16 27/03/2022Duathl'Aix (13) - Duathlon S Julien MONNIER0611h00'08''MCA 876Sa course
1524120/03/2022Duathlon des Vignobles (83) - S Gaëlle NARDIN131641h20'54''FS2125Sa course
177 20/03/2022Duathlon de Saintes (17) - S Benoit FAURE02641h14'13''MVE3831Sa course
30 06/03/2022Duathlon de la Fermière (13) - S Théo CABARDOS01111h10'21''MS2475Sa course
8 06/03/2022Duathlon de la Fermière (13) - S Julien MONNIER01111h05'21''MCA2109Sa course
101 27/02/2022Duathlon des Princes d'Aragon (83) - S Olivier DOMINGUEZ802841h28'03''HV2565Sa course
2395527/02/2022Duathlon des Princes d'Aragon (83) - S Gaëlle NARDIN132841h48'49''FS21716Sa course
Pas de résultats pour ce club

Résultats des TRI-CUP de la saison

Résultats du tri-cup-l

AnnéeCltClt/F TCNomIPRGAClt/GA
202231060 Erwan JACOBI288MS22
202241012 Nathan MENANT304MS11
2022290228 Aurélien DRUMEZ84MS365
2022509126 Francois PARCHEMIN53MS465
202254994 Pascal LALLEMAND36MV375

Résultats des TRI-CUP de la saison

Résultats du tri-cup-m

AnnéeCltClt/F TCNomIPRGAClt/GA
202238563 Sebastien RODRIGUEZ167MS47
202289389 Maxime DUPARC128MS230
2022195292 Simon ROUSSE95MS345
202270848181 Christelle PUCCI58FS43
2022998100 Quentin GAUTHIER28MS154
2022116814728 Emmanuelle DEL NEGRO8FV39

Résultats des TRI-CUP des saisons passées

Résultats du TRI-CUP LD

TRI-CUPAnnéeCltClt/F TCNomIPRGAClt/GA
TRI-CUP LD2021288128 Arthur RIVIERE49MS239
TRI-CUP LD202133858 Nathan AMGHAR23MV339
TRI-CUP LD20205736 Nathan AMGHAR23MV29
TRI-CUP LD201962403 David MARTIN116MV112
TRI-CUP LD2019105335 Sebastien BOUJENAH0MS227
TRI-CUP LD2019112324 Erwan JACOBI237MS17
TRI-CUP LD2019124315 Paul TEACHOUT0MS237
TRI-CUP LD2019167297 Sébastien SOUFFLEUX0MV126
TRI-CUP LD2019268269 Jean-baptiste HAUMONTE0MS455
TRI-CUP LD2019378242 Romain LACAILLE72MS469
TRI-CUP LD201966546166 Christelle PUCCI54FS312
TRI-CUP LD201987481 Nathan AMGHAR23MV2153
TRI-CUP LD201865453 Paul TEACHOUT0MS111
TRI-CUP LD20181546311 Manon GENET123FS22
TRI-CUP LD2018193295 Jean-baptiste HAUMONTE0MS428
TRI-CUP LD201829018273 Candice MIZON86FS34
TRI-CUP LD2018541215 Lionel BOURROUX71MV1106
TRI-CUP LD201861637198 Pauline AVRONSART0FS213
TRI-CUP LD201897695 Jérôme ROSET46MS3134

Résultats du TRI-CUP M

TRI-CUPAnnéeCltClt/F TCNomIPRGAClt/GA
TRI-CUP M202140403 Sebastien RODRIGUEZ155MS311
TRI-CUP M201975480 David MARTIN116MV19
TRI-CUP M2019268282 David PUPETTO0MS261
TRI-CUP M2019451249 Romain LACAILLE72MS482
TRI-CUP M2019118087117 Privatine FEUILLAT0FS112
TRI-CUP M20191221108 Anthony PERON28MS3147
TRI-CUP M2019125899 Stephane ROSOLI22MV1202
TRI-CUP M2018763158 Arnaud CHARPENTIER0MS3109
TRI-CUP M2018916116 Stephane ROSOLI22MV1168
TRI-CUP M2018101380 Bertrand LEMARECHAL11MV433

Podiums du club

Clt/GAGANomIPRNb CoursesTCCltClt F
2MS2 Erwan JACOBI288310603Résultats
1MS1 Nathan MENANT304310124Résultats
Clt/GAGADateEpreuveNomIPRClt FCltNbTempsIP
2MSE16/10/2022Triathlon de Saint Cyr sur Mer (83) - LSebastien RODRIGUEZ1674954h37'02''134RésultatsSa course
1FSE16/10/2022Triathlon de Saint Cyr sur Mer (83) - LCandice MIZON89121955h18'25''79RésultatsSa course
1MSE09/10/2022Sardines Titus Triathlon (13) - MBrice HACQUART23114852h08'49''357RésultatsSa course
1MC1 08/10/2022Sardines Titus Triathlon (13) - Aquathlon XSJulien MONNIER017414'50''169RésultatsSa course
2MS202/10/2022Triathlon de Carqueiranne (83) - SValentin MONTPIED97112991h12'53''104RésultatsSa course
1MS125/09/2022ExtremeMan (11) - Triathlon LBrice HACQUART23121203h54'42''180RésultatsSa course
1MS124/09/2022Triathlon Sud Vendée (85) - LNathan MENANT30413853h46'17''320RésultatsSa course
3MS311/09/2022Triathlon du Champsaur (05) - MThomas SUZON96131992h50'02''99RésultatsSa course
1MSE04/09/2022Triathlon de Villevêque (49) - MNathan MENANT30451542h05'53''142RésultatsSa course
1F35-3920/08/2022IronMan 70.3 de Vichy (03) - Triathlon LCandice MIZON891624720404h10'58''89RésultatsSa course
1MS114/07/2022Triathlon du Haut Languedoc (34) - Championnat de France de Triathlon LBrice HACQUART23122674h12'08''236RésultatsSa course
3MSE11/07/2022FitDays de Nages (81) - Triathlon MBrice HACQUART2313892h05'06''150RésultatsSa course
1MSE10/07/2022Triathlon du Mans (72) - MNathan MENANT30412171h59'23''248RésultatsSa course
2MS202/07/2022Triathlon d'Embrun (05) - MMaxime DUPARC12865572h30'23''191RésultatsSa course
3FS402/07/2022Triathlon d'Embrun (05) - MJil GUEGUEN CLOIX7181225572h59'06''78RésultatsSa course
1MS402/07/2022Triathlon d'Embrun (05) - MSebastien RODRIGUEZ16745572h28'44''252RésultatsSa course
2FS402/07/2022Triathlon d'Embrun (05) - MCandice MIZON894685572h51'46''89RésultatsSa course
1MCa19/06/2022Triathlon de Carpentras (84) - S en CLMJulien MONNIER051741h01'59''149RésultatsSa course
1MS305/06/2022TriGames - Cagnes-Sur-Mer (06) - MSimon ROUSSE95184232h40'40''101RésultatsSa course
3FS405/06/2022TriGames - Cagnes-Sur-Mer (06) - MChristelle PUCCI58101404233h05'06''67RésultatsSa course
2FSE28/05/2022Triathlon de Porticcio (20) - LPauline AVRONSART03281006h23'41''71RésultatsSa course
1MS127/05/2022FrenchMan Triathlon - Carcans (33) - LNathan MENANT30429663h45'11''439RésultatsSa course
2MCa14/05/2022TriGames de Fréjus (83) - Triathlon SJulien MONNIER0728658'38''144RésultatsSa course
2FS408/05/2022Triathlon de la Côte Bleue (13) - MChristelle PUCCI58161833362h30'50''44RésultatsSa course
1MS108/05/2022Triathlon de Sète - Trophée Laurent VIDAL (34) - SBrice HACQUART231241951'46''306RésultatsSa course
2MCA06/03/2022Duathlon de la Fermière (13) - SJulien MONNIER081111h05'21''109RésultatsSa course
1MS217/10/2021Triathlon de la Côte Bleue (13) - MErwan JACOBI28832721h52'20''224RésultatsSa course
3FS217/10/2021Triathlon de la Côte Bleue (13) - MLucie REGHEM6171462722h29'36''47RésultatsSa course
2MS117/10/2021Triathlon de la Côte Bleue (13) - MNathan MENANT30422721h46'10''252RésultatsSa course
2MS317/10/2021Triathlon de la Côte Bleue (13) - MSebastien RODRIGUEZ16752721h53'32''172RésultatsSa course
3FS203/10/2021Sardines Titus Duathlon (13) - MStephanie PICOT59101594262h53'33''62RésultatsSa course
1MS119/09/2021Triathlon de Château Gontier (53) - MNathan MENANT30411231h56'36''201RésultatsSa course
1MS119/09/2021VentouxMan (84) - Triathlon LFlorian LAUDICINA0163296h04'35''100RésultatsSa course
1MS329/08/2021Triathlon du Lac des Settons (58) - MBaptiste CLOIX85231242h32'31''84RésultatsSa course
2MSE29/08/2021EDF VercorsMan (26) - Triathlon XLErwan JACOBI28822196h04'13''231RésultatsSa course
1FS329/08/2021Triathlon du Lac des Settons (58) - MJil GUEGUEN CLOIX713481242h46'53''63RésultatsSa course
2MS122/08/2021Triathlon de la Ferté Bernard (72) - MNathan MENANT30421721h56'23''208RésultatsSa course
1FSE10/07/2021Le Défi de Veynes (05) - Cross Triathlon MPauline AVRONSART0226343h27'06''22RésultatsSa course
1MC110/07/2021Aquathlon de l'Ail (84) - SPaolo ZAFFALON042621h04'00''34RésultatsSa course
1FS310/07/2021Triathlon des Gorges - Ardèche et Gard (07) - LCandice MIZON893564774h25'33''90RésultatsSa course
2MM2 10/07/2021Aquathlon de l'Ail (84) - XSJulien MONNIER026215'38''148RésultatsSa course
3MJU08/07/2021Triathlon des Gorges - Ardèche et Gard (07) - MOlivier DOMINGUEZ80425441h48'27''95RésultatsSa course
2FSE08/07/2021Triathlon des Gorges - Ardèche et Gard (07) - MCandice MIZON894645441h50'46''90RésultatsSa course
1FS204/07/2021Triathlon d'Embrun (05) - LStephanie PICOT5971463395h48'28''56RésultatsSa course
1FS303/07/2021Triathlon d'Embrun (05) - MCandice MIZON891323942h40'57''95RésultatsSa course
1MS303/07/2021Triathlon d'Embrun (05) - MSebastien RODRIGUEZ16793942h25'07''131RésultatsSa course
2MS226/06/2021Triathlon d'Aydat (63) - MMaxime DUPARC12842562h21'40''184RésultatsSa course
2MS120/06/2021Tours'N Man (37) - Triathlon MNathan MENANT30424492h03'10''314RésultatsSa course
1MS318/10/2020TriGames de Mandelieu (06) - MJulien POUSSON024072h39'28''301RésultatsSa course
3MV103/10/2020NatureMan VAR (83) - Triathlon LThomas PIGOIS0638355h26'22''94RésultatsSa course
3MS127/09/2020TriGames - Cagnes-Sur-Mer (06) - LErwan JACOBI28882644h38'35''128RésultatsSa course
1MVE30/08/2020EDF VercorsMan (26) - Triathlon XLDavid MARTIN119223356h57'29''97RésultatsSa course
3MV523/08/2020Watrissart - Cross Triathlon de Jeumont (59) - MEric LICHTFOUSE331142262h06'19''47RésultatsSa course
2MV101/03/2020Duathlon des Princes d'Aragon (83) - SDavid MARTIN119192181h21'29''95RésultatsSa course
2FS301/03/2020Duathlon des Princes d'Aragon (83) - SPauline AVRONSART0151502181h42'40''30RésultatsSa course
3FS201/03/2020Duathlon des Princes d'Aragon (83) - SSophie PRACH091382181h40'09''36RésultatsSa course
2MS213/10/2019Sardines Titus Triathlon (13) - MJulien POUSSON075012h11'52''169RésultatsSa course
2MS213/10/2019Triathlon de Bandol (83) - LSebastien BOUJENAH0123085h00'25''103RésultatsSa course
3MV113/10/2019Sardines Titus Triathlon (13) - MDavid MARTIN119305012h29'41''97RésultatsSa course
2MS129/09/2019Triathlon du Tricastin en Drome Provencale (26) - MJulien COQUARD072312h21'06''135RésultatsSa course
3MV129/09/2019ExtremeMan (11) - Triathlon LSébastien SOUFFLEUX0151504h29'37''94RésultatsSa course
1MV122/09/2019Istr'M (13) - Triathlon MDavid MARTIN11941622h14'19''158RésultatsSa course
1FV408/09/2019Half IronMan 70.3 de Nice (06) - Triathlon LCatherine HOUSEAUX0169212550305h21'47''58RésultatsSa course
3MS101/09/2019Triathlon du Lac Chambon (63) - MValentin MONTPIED9781942h15'03''122RésultatsSa course
1FSE31/08/2019Le Défi de Veynes (05) - Cross Triathlon MPauline AVRONSART0143853h01'37''49RésultatsSa course
2FVE21/07/2019Triathlon du Val de Gray (70) - LCatherine HOUSEAUX05592224h43'51''73RésultatsSa course
2MS321/07/2019Triathlon de Marseille (13) - LPierre-yves MARTEAU071334h41'03''117RésultatsSa course
1MS121/07/2019Triathlon de Marseille (13) - MErwan JACOBI28816702h01'42''420RésultatsSa course
1MV121/07/2019Triathlon de Marseille (13) - LDavid MARTIN11961334h35'40''123RésultatsSa course
2MVE07/07/2019Triathlon du Lauragais (31) - LSébastien SOUFFLEUX071154h38'35''114RésultatsSa course
1MV106/07/2019Triathlon des Gorges - Ardèche et Gard (07) - LDavid MARTIN11965353h46'55''187RésultatsSa course
3MS206/07/2019Triathlon des Gorges - Ardèche et Gard (07) - LSebastien BOUJENAH0105353h49'06''121RésultatsSa course
1MS223/06/2019Triathlon des Vannades (04) - MPaul TEACHOUT024442h25'51''309RésultatsSa course
3MS323/06/2019Triathlon des Vannades (04) - MPierre-yves MARTEAU0134442h33'18''104RésultatsSa course
2MS123/06/2019Triathlon des Vannades (04) - MValentin MONTPIED9754442h27'19''204RésultatsSa course
3FS223/06/2019Triathlon des Vannades (04) - MMarie-maud CUNY82262794443h19'03''35RésultatsSa course
3MS316/06/2019Triathlon du Pays Salonais (13) - MAurélien DRUMEZ84161812h07'50''95RésultatsSa course
3MS416/06/2019TriGames - Cagnes-Sur-Mer (06) - LJean-baptiste HAUMONTE0252105h25'21''90RésultatsSa course
2FS109/06/2019Triathlon d'Obernai - Benfeld (67) - MPrivatine FEUILLAT0373065223h22'40''40RésultatsSa course
1MV109/06/2019Triathlon de Vins-sur-Caramy (83) - MDavid MARTIN11941342h11'58''148RésultatsSa course
1MS108/06/2019Triathlon Nature de Bouzigues (34) - MMathurin BOUTTE021962h13'50''211RésultatsSa course
2MS126/05/2019Triathlon de Hyères (83) - LValentin MONTPIED97193885h18'54''99RésultatsSa course
1MV119/05/2019Island Man - La Ciotat (13) - Triathlon LDavid MARTIN11942254h27'00''174RésultatsSa course
3FSE19/05/2019Island Man - La Ciotat (13) - Triathlon LChristelle PUCCI5831252255h46'25''40RésultatsSa course
3MV419/05/2019Island Man - La Ciotat (13) - Triathlon LEric LICHTFOUSE33772255h26'06''64RésultatsSa course
3MS212/05/2019Half IronMan 70.3 d'Aix en Provence (13) - Triathlon LPaul TEACHOUT02918804h17'31''106RésultatsSa course
1MS221/04/2019Triathlon de Cannes (06) - LPaul TEACHOUT0128904h45'09''110RésultatsSa course
1MS331/03/2019Duathlon des Vignobles (83) - SMarco TURI01424155'59''99RésultatsSa course
1MS231/03/2019Duathlon des Vignobles (83) - SPaul TEACHOUT0424155'30''180RésultatsSa course
3MS110/03/2019Duathlon des Princes d'Aragon (83) - SJulien COQUARD0222401h22'17''94RésultatsSa course
2MV110/03/2019Duathlon des Princes d'Aragon (83) - SDavid MARTIN11972401h19'50''136RésultatsSa course
1FCA10/03/2019Duathlon des Princes d'Aragon (83) - SAnouk STERKERS071442401h38'57''39RésultatsSa course
1FPRO16/09/2018Half IronMan 70.3 de Nice (06) - Triathlon LManon GENET13114820864h46'29''102RésultatsSa course
3MV401/09/2018O'Xyrace (01) - Cross Triathlon MEric LICHTFOUSE331082642h29'02''57RésultatsSa course
1MSE26/08/2018Triathlon du Mont Blanc (74) - LPaul TEACHOUT012004h21'43''241RésultatsSa course
3MS422/07/2018Triathlon de Marseille (13) - LJean-baptiste HAUMONTE0102184h58'08''104RésultatsSa course
3MS307/07/2018Triathlon des Gorges - Ardèche et Gard (07) - LBertrand BILLARD225157054h31'24''105RésultatsSa course
1FV307/07/2018Triathlon des Gorges - Ardèche et Gard (07) - LCatherine HOUSEAUX0191907055h34'34''68RésultatsSa course
2MS424/06/2018Triathlon des Vannades (04) - MDavid MARTIN119123642h27'36''104RésultatsSa course
1FS324/06/2018Triathlon des Vannades (04) - MCandice MIZON892493642h42'47''88RésultatsSa course
3FPRO24/06/2018IronMan de Nice (06) - Triathlon XXLManon GENET13134123819h32'34''104RésultatsSa course
1MS124/06/2018Triathlon des Vannades (04) - MErwan JACOBI28813642h14'54''315RésultatsSa course
1MS324/06/2018Triathlon des Vannades (04) - MSebastien RODRIGUEZ16763642h25'30''165RésultatsSa course
2MV124/06/2018Triathlon des Vannades (04) - MSébastien SOUFFLEUX0213642h33'32''99RésultatsSa course
1FV324/06/2018IronMan de Nice (06) - Triathlon XXLCatherine HOUSEAUX012204238110h31'34''93RésultatsSa course
3MS124/06/2018Triathlon des Vannades (04) - MPaul TEACHOUT033642h21'08''251RésultatsSa course
3MV110/06/2018Triathlon de Vins-sur-Caramy (83) - MOlivier DOMINGUEZ80211812h21'27''92RésultatsSa course
3MS203/06/2018VentouxMan (84) - Triathlon LRomain GARCIN0106785h28'29''126RésultatsSa course
1FSE03/06/2018Triathlon de Hyères (83) - L 882285h02'02''62RésultatsSa course
2FS203/06/2018VentouxMan (84) - Triathlon LPauline AVRONSART0111686786h46'59''74RésultatsSa course
1MS302/06/2018Triathlon du Salagou (34) - LBertrand BILLARD22513063h59'27''286RésultatsSa course
1FS326/05/2018FrenchMan Triathlon - Carcans (33) - XXLCandice MIZON892214059h48'25''99RésultatsSa course
1MS326/05/2018FrenchMan Triathlon - Carcans (33) - XXLSebastien RODRIGUEZ16754059h03'51''195RésultatsSa course
2MV120/05/2018Island Man - La Ciotat (13) - Triathlon LSébastien SOUFFLEUX0164064h38'06''102RésultatsSa course
2MS420/05/2018Island Man - La Ciotat (13) - Triathlon LDavid MARTIN119124064h34'35''104RésultatsSa course
1FS320/05/2018Island Man - La Ciotat (13) - Triathlon L 944065h12'12''76RésultatsSa course
1FPRO13/05/2018Half IronMan 70.3 d'Aix en Provence (13) - Triathlon LManon GENET13112714774h24'22''105RésultatsSa course
1FS306/05/2018Triathlon de la Corniche d'Or (83) - M 882842h44'32''69RésultatsSa course
1FS305/05/2018Lacanau Tri'Events (33) - Triathlon LCandice MIZON891447244h22'18''96RésultatsSa course
2MV129/04/2018Duathlon de Douai (59) - LOlivier MARTINEZ0112683h15'46''102RésultatsSa course
1MJU29/04/2018Triathlon de Cannes (06) - LAntoine FALDUTO0279835h05'12''102RésultatsSa course
1FS308/04/2018Duathlon de Grasse (06) - MCandice MIZON893803391h48'02''77RésultatsSa course
1MS308/04/2018Duathlon de Grasse (06) - MSebastien RODRIGUEZ16773391h33'20''151RésultatsSa course
3FS325/03/2018Duathlon des Vignobles (83) - SJil GUEGUEN CLOIX71111342111h09'16''35RésultatsSa course
3MS125/03/2018Duathlon des Vignobles (83) - SPaul TEACHOUT0621156'16''140RésultatsSa course
2MJU25/03/2018Duathlon des Vignobles (83) - SAntoine FALDUTO0421156'07''173RésultatsSa course
2MSE18/02/2018Duathlon des Princes d'Aragon (83) - SSebastien RODRIGUEZ16721211h18'38''183RésultatsSa course
1FSE18/02/2018Duathlon des Princes d'Aragon (83) - SCandice MIZON891381211h29'04''70RésultatsSa course
3MSE18/02/2018Duathlon des Princes d'Aragon (83) - SPaul TEACHOUT031211h19'44''165RésultatsSa course
2MS215/10/2017Triathlon de Bandol (83) - LRomain GARCIN044084h35'20''217RésultatsSa course
1FV115/10/2017Triathlon de Bandol (83) - LCandice MIZON891814085h30'14''80RésultatsSa course
1MS308/10/2017NatureMan VAR (83) - Triathlon LBertrand BILLARD225311024h17'34''415RésultatsSa course
3MS108/10/2017Sardines Titus Triathlon (13) - MPierre MOREAU73223842h33'47''98RésultatsSa course
3MS208/10/2017NatureMan VAR (83) - Triathlon LRomain GARCIN0811024h28'53''205RésultatsSa course
1MS108/10/2017Sardines Titus Triathlon (13) - MErwan JACOBI288133842h16'53''103RésultatsSa course
1MSE01/10/2017ExtremeMan (11) - Triathlon LRomain GARCIN011853h51'51''235RésultatsSa course
1MSE17/09/2017TriaLong Ile de France (77) - LLucas AMIRAULT012403h53'20''265RésultatsSa course
3MS203/09/2017TriGames de Mandelieu (06) - LRomain GARCIN061605h01'21''128RésultatsSa course
1F30-3427/08/2017IronMan de Vichy (03) - Triathlon XXLCandice MIZON89288122110h02'51''95RésultatsSa course
1FV302/07/2017Triathlon de Dijon (21) - LCatherine HOUSEAUX0263476855h24'24''50RésultatsSa course
2MS102/07/2017Triathlon de Dijon (21) - LErwan JACOBI28846854h13'19''279RésultatsSa course
2MS225/06/2017Triathlon des Vannades (04) - MRomain GARCIN084332h29'57''147RésultatsSa course
1MS125/06/2017Triathlon des Vannades (04) - MErwan JACOBI28814332h19'05''335RésultatsSa course
2MV125/06/2017Triathlon des Vannades (04) - MSébastien SOUFFLEUX0214332h39'26''100RésultatsSa course
3MS204/06/2017VentouxMan (84) - Triathlon LRomain GARCIN068015h32'55''223RésultatsSa course
1FSE04/06/2017Triathlon de Hyères (83) - LCandice MIZON891483454h47'42''88RésultatsSa course
1FV304/06/2017VentouxMan (84) - Triathlon LCatherine HOUSEAUX0102858016h59'19''65RésultatsSa course
2MS328/05/2017Triathlon de Vins-sur-Caramy (83) - MOlivier DOMINGUEZ80161712h19'36''95RésultatsSa course
2MJU28/05/2017Triathlon de Vins-sur-Caramy (83) - MRomain GARCIN071712h15'22''125RésultatsSa course
1F50-5414/05/2017Half IronMan 70.3 d'Aix en Provence (13) - Triathlon LCatherine HOUSEAUX03650217265h20'32''71RésultatsSa course
1MPRO14/05/2017Half IronMan 70.3 d'Aix en Provence (13) - Triathlon LBertrand BILLARD225117263h55'18''664RésultatsSa course
1F30-3414/05/2017Half IronMan 70.3 d'Aix en Provence (13) - Triathlon LCandice MIZON891318617264h54'05''90RésultatsSa course
2M18-2414/05/2017Half IronMan 70.3 d'Aix en Provence (13) - Triathlon LErwan JACOBI2882417264h22'17''107RésultatsSa course
1MS301/05/2017TriGames - Cagnes-Sur-Mer (06) - MBertrand BILLARD22516122h07'55''396RésultatsSa course
2MS101/05/2017TriGames - Cagnes-Sur-Mer (06) - MPierre MOREAU73106122h27'13''124RésultatsSa course
1FS309/04/2017Duathlon de Grasse (06) - MCandice MIZON892942651h50'52''65RésultatsSa course
2FS216/10/2016Triathlon de Bandol (83) - LPauline AVRONSART092343856h13'08''40RésultatsSa course
1MS216/10/2016Triathlon de Bandol (83) - LSebastien BOUJENAH033854h42'35''260RésultatsSa course
1MSE27/08/2016Triathlon des Gorges - Ardèche et Gard (07) - LBertrand BILLARD22513303h39'55''304RésultatsSa course
1MS226/06/2016Triathlon de Hyères (83) - LSebastien BOUJENAH012994h49'12''291RésultatsSa course
1MS211/06/2016Triathlon du Salagou (34) - LBertrand BILLARD22513564h00'29''315RésultatsSa course
1F50-5405/06/2016IronMan de Nice (06) - Triathlon XXLCatherine HOUSEAUX027572240710h55'54''77RésultatsSa course
3MV105/06/2016Triathlon de Saint Rémy sur Durolle (63) - LDavid MARTIN013345h45'28''66RésultatsSa course
2MV108/05/2016Triathlon du Tricastin en Drome Provencale (26) - MSébastien SOUFFLEUX0192572h19'45''97RésultatsSa course
1MPRO01/05/2016Half IronMan 70.3 d'Aix en Provence (13) - Triathlon LBertrand BILLARD225120583h30'32''724RésultatsSa course
3M18-2401/05/2016Half IronMan 70.3 d'Aix en Provence (13) - Triathlon LErwan JACOBI2884820583h53'09''102RésultatsSa course
1M25-2901/05/2016Half IronMan 70.3 d'Aix en Provence (13) - Triathlon LSebastien BOUJENAH01720583h44'07''112RésultatsSa course
2MV110/04/2016Duathlon de Grasse (06) - MSébastien SOUFFLEUX091521h40'19''109RésultatsSa course
2MV618/10/2015Triathlon de Bandol (83) - LBernard EVRARD02503496h02'53''29RésultatsSa course
2MS418/10/2015Triathlon de Bandol (83) - LDavid MARTIN119103494h40'16''114RésultatsSa course
1MS118/10/2015Triathlon de Bandol (83) - LSebastien BOUJENAH043494h31'59''211RésultatsSa course
2MS411/10/2015Sardines Titus Triathlon (13) - MDavid MARTIN119113762h25'43''105RésultatsSa course
1MS211/10/2015Sardines Titus Triathlon (13) - MBertrand BILLARD22513762h09'01''317RésultatsSa course
2ELM30/08/2015IronMan de Vichy (03) - Triathlon XXLBertrand BILLARD225211688h27'39''493RésultatsSa course
225-2928/06/2015IronMan de Nice (06) - Triathlon XXLSebastien RODRIGUEZ1672322519h34'12''109RésultatsSa course
1MV614/06/2015Triathlon Nature de Bouzigues (34) - MBernard EVRARD031543h37'46''45RésultatsSa course
1MS207/06/2015Triathlon du Salagou (34) - LBertrand BILLARD22514004h19'55''332RésultatsSa course
1MS207/06/2015VentouxMan (84) - Triathlon LSebastien RODRIGUEZ16754785h18'52''213RésultatsSa course
2MS107/06/2015VentouxMan (84) - Triathlon LSebastien BOUJENAH034785h16'46''285RésultatsSa course
3M18-2403/05/2015Half IronMan 70.3 d'Aix en Provence (13) - Triathlon LSebastien BOUJENAH05119944h31'44''102RésultatsSa course
1MV212/07/2014Half AlTriMan (66) - Triathlon LDavid MARTIN11992865h33'37''123RésultatsSa course
1MSE07/06/2014Triathlon du Salagou (34) - LBertrand BILLARD22512364h21'19''263RésultatsSa course
118/05/2014Half IronMan 70.3 d'Aix en Provence (13) - Triathlon LBertrand BILLARD225114303h58'27''606RésultatsSa course
1FS306/10/2013NatureMan VAR (83) - Triathlon LAlexandra LOUISON02438514h50'10''98RésultatsSa course
1ELF07/09/2013Triathlon de Gérardmer (88) - LAlexandra LOUISON014513075h05'11''100RésultatsSa course
2FS215/08/2013EmbrunMan - Triathlon XXL (05)Arnaud JULIÉ093117912h16'02''94RésultatsSa course
2FS315/08/2013EmbrunMan - Triathlon XXL (05)Alexandra LOUISON0429117911h30'43''103RésultatsSa course
1ELF16/06/2013Duath'Long de Cambrai (59) - Championnat de France de Duathlon Longue DistanceAlexandra LOUISON01251512h57'09''86RésultatsSa course
1FSE02/06/2013Triathlon d'Obernai - Benfeld (67) - LAlexandra LOUISON01151794h54'54''96RésultatsSa course
1FS226/05/2013Triathlon du Lubéron (84) - LArnaud JULIÉ0311415h08'44''80RésultatsSa course
2ELF19/05/2013Corsica X Tri (20) - Triathlon LAlexandra LOUISON02574104h49'10''88RésultatsSa course
1FS307/10/2012NatureMan VAR (83) - Triathlon LAlexandra LOUISON02346604h48'50''99RésultatsSa course
2M40-4423/09/2012Half IronMan 70.3 d'Aix en Provence (13) - Triathlon LEmmanuel SPOIDEN105488094h35'48''97RésultatsSa course
3ELF01/09/2012Triathlon de Gérardmer (88) - LAlexandra LOUISON037312055h23'56''96RésultatsSa course
2FS325/07/2012Triathlon de l'Alpe d'Huez (38) - LAlexandra LOUISON03285636h43'03''99RésultatsSa course
1MV103/06/2012Triathlon du Lubéron (84) - LEmmanuel SPOIDEN10541254h34'22''147RésultatsSa course
2ELF19/05/2012Corsica X Tri (20) - Triathlon LAlexandra LOUISON02425654h49'56''95RésultatsSa course
1FS215/08/2011EmbrunMan - Triathlon XXL (05)Alexandra LOUISON033780111h44'04''99RésultatsSa course
2MS215/08/2011EmbrunMan - Triathlon XXL (05)Nicolas FERNANDEZ76880110h37'12''183RésultatsSa course
3MPRO10/07/2011TriStar 111 de Lyon (69) - LNicolas FERNANDEZ763964h26'00''154RésultatsSa course
3MS222/05/2011Triathlon de Bacchus (11) - LThierry BIROU82311664h58'47''84RésultatsSa course
1M2506/09/2009IronMan 70.3 MonacoNicolas FERNANDEZ76811294h25'10''209RésultatsSa course
2MS3 07/06/2009Triathlon de Belfort (90) - LDavid MARTIN119341576h38'58''81RésultatsSa course
2ELM07/06/2009Triathlon de Belfort (90) - LSébastien BERLIER021575h50'27''203RésultatsSa course
3MS3 07/06/2009Triathlon de Belfort (90) - LLudo BOUETARD0561577h08'19''66RésultatsSa course
1MPRO10/05/2009Triathlon du Sud (30) - LSébastien BERLIER013483h57'32''311RésultatsSa course
1FS415/08/2008EmbrunMan - Triathlon XXL (05)Audrey CLEAU024485511h44'23''98RésultatsSa course
1FS430/07/2008Triathlon de l'Alpe d'Huez (38) - LAudrey CLEAU03172506h52'18''98RésultatsSa course
2MPRO29/06/2008IronMan de Nice (06) - Triathlon XXLHervé FAURE129219578h41'40''633RésultatsSa course
1FSE29/06/2008Triathlon de Dijon (21) - LAudrey CLEAU01252554h50'07''94RésultatsSa course
3MS225/05/2008Triathlon du Lubéron (84) - LDavid MARTIN11961724h13'15''133RésultatsSa course
1MS320/04/2008Duathlon de Hyères (83) - LHervé FAURE12932012h50'35''199RésultatsSa course
2MS220/04/2008Duathlon de Hyères (83) - LDavid MARTIN119152013h04'15''97RésultatsSa course
1MS407/10/2007Island Man - La Ciotat (13) - Triathlon LEmmanuel SPOIDEN10554364h09'40''205RésultatsSa course
1MS307/10/2007Island Man - La Ciotat (13) - Triathlon LHervé FAURE12914363h58'23''345RésultatsSa course
1FS330/09/2007Half Doussard (74) - Triathlon LAudrey CLEAU01431874h23'39''79RésultatsSa course
3ELF30/09/2007Duath'Long de Cambrai (59) - Championnat de France de Duathlon Longue DistanceAudrey CLEAU03752983h17'21''76RésultatsSa course
2FS309/09/2007Triathlon de Gérardmer (88) - LAudrey CLEAU04566357h30'36''93RésultatsSa course
1MS309/09/2007Triathlon de Gérardmer (88) - LHervé FAURE12946356h25'36''270RésultatsSa course
1MS315/08/2007EmbrunMan - Triathlon XXL (05)Hervé FAURE12915439h48'59''382RésultatsSa course
1FS315/08/2007EmbrunMan - Triathlon XXL (05)Audrey CLEAU013154311h57'40''98RésultatsSa course
3FS301/08/2007Triathlon de l'Alpe d'Huez (38) - LAudrey CLEAU03242477h13'39''94RésultatsSa course
1FSE22/07/2007Triathlon de Belfort (90) - LAudrey CLEAU01211214h37'07''86RésultatsSa course
1MS308/04/2007Duathlon de Hyères (83) - LHervé FAURE12912042h50'34''247RésultatsSa course
3MSE24/09/2006Triathlon de la Corniche d'Or (83) - LCyrille NEVEU033023h44'24''234RésultatsSa course
3MS409/09/2006Triathlon de Gérardmer (88) - LLaurent BEUZEBOC0176356h52'01''104RésultatsSa course
2MS309/09/2006Triathlon de Gérardmer (88) - LHervé FAURE12936356h16'26''324RésultatsSa course
1FS309/09/2006Triathlon de Gérardmer (88) - LAudrey CLEAU04716357h27'45''91RésultatsSa course
3MS227/08/2006Triathlon du Jura Vouglans (39) - LDavid MARTIN119222304h19'00''94RésultatsSa course
1MS427/08/2006Triathlon du Jura Vouglans (39) - LLaurent BEUZEBOC032304h00'45''210RésultatsSa course
1FS327/08/2006Triathlon du Jura Vouglans (39) - LAudrey CLEAU01372304h31'54''86RésultatsSa course
1MS315/08/2006EmbrunMan - Triathlon XXL (05)Hervé FAURE12917779h54'03''452RésultatsSa course
2M3525/06/2006IronMan de Nice (06) - Triathlon XXLLaurent BEUZEBOC0158749h32'12''108RésultatsSa course
2MPRO25/06/2006IronMan de Nice (06) - Triathlon XXLHervé FAURE12928748h36'04''430RésultatsSa course
3MS416/04/2006Duathlon de Hyères (83) - LRené ROVERA072133h01'01''133RésultatsSa course
1MS416/04/2006Duathlon de Hyères (83) - LLaurent BEUZEBOC022132h54'58''229RésultatsSa course
204/09/2005IronMan 70.3 MonacoHervé FAURE12928444h36'02''423RésultatsSa course
1MPRO19/06/2005IronMan de Nice (06) - Triathlon XXLHervé FAURE129111038h49'06''535RésultatsSa course
3MS205/06/2005Triathlon de Lorient (56) - LHervé FAURE12994054h01'57''132RésultatsSa course
2FS305/06/2005Triathlon de Lorient (56) - LAudrey CLEAU051164054h47'41''72RésultatsSa course
1MSE05/09/2004Triathlon de Saint Rémy sur Durolle (63) - LRené ROVERA01854h09'38''177RésultatsSa course
3MS204/07/2004Triathlon de Nice (06) - XLHervé FAURE129616076h42'21''300RésultatsSa course
1MS304/07/2004Triathlon de Nice (06) - XLCyrille NEVEU0416076h39'51''413RésultatsSa course
3MX26/06/2004Triathlon de Gérardmer (88) - LHervé FAURE12936938h53'08''337RésultatsSa course
1MSE15/08/2003EmbrunMan - Triathlon XXL (05)Cyrille NEVEU018319h59'21''467RésultatsSa course
2MS220/07/2003Triathlon de Dijon (21) - LCyrille NEVEU043464h09'24''210RésultatsSa course

Résultats aux championnats de France

DateNomIPRClt FCltNbTempsGAClt/GA
14/07/2022Brice HACQUART23122524h12'08''MS11RésultatsSa course
14/07/2022Aurélien DRUMEZ841072525h17'32''MS315RésultatsSa course
14/07/2022François BOULESTEIX01492525h48'05''MS320RésultatsSa course
06/06/2021Sebastien RODRIGUEZ167454254h38'11''MS37RésultatsSa course
06/06/2021Candice MIZON89121724255h13'56''FS35RésultatsSa course
06/06/2021Olivier DOMINGUEZ802274255h25'53''MV223RésultatsSa course
06/06/2021Francois PARCHEMIN534374256h16'52''MS439RésultatsSa course
27/09/2020Eric LICHTFOUSE331442306h29'16''MV55RésultatsSa course
27/09/2020Erwan JACOBI28882304h38'35''MS13RésultatsSa course
27/09/2020Fabrice LEDOGAR01302306h18'28''MV112RésultatsSa course
23/08/2020Eric LICHTFOUSE33851572h06'19''MV53RésultatsSa course
25/08/2019David MARTIN119493014h57'34''MV16RésultatsSa course
25/08/2019Nathan AMGHAR222243016h32'01''MV229RésultatsSa course
25/08/2019Paul TEACHOUT0183014h39'10''MS25RésultatsSa course
09/06/2019Mathurin BOUTTE021392h13'50''MS11RésultatsSa course
01/09/2018Eric LICHTFOUSE33972002h29'02''MV43RésultatsSa course
07/07/2018Catherine HOUSEAUX0191846485h34'34''FV31RésultatsSa course
07/07/2018Erwan JACOBI28896484h28'49''MS14RésultatsSa course
07/07/2018Baptiste CLOIX852026485h38'44''MS326RésultatsSa course
07/07/2018Bertrand BILLARD225156484h31'24''MS33RésultatsSa course
07/07/2018Sylvain PROUET02066485h39'54''MS327RésultatsSa course
07/07/2018Paul TEACHOUT0186484h35'35''MS16RésultatsSa course
07/07/2018Pauline AVRONSART0342666485h52'49''FS28RésultatsSa course
07/07/2018Sebastien RODRIGUEZ167446484h49'55''MS37RésultatsSa course
07/07/2018Frank MARMOLLE02826485h56'19''MV237RésultatsSa course
07/07/2018David MARTIN119916485h08'16''MS49RésultatsSa course
07/07/2018Candice MIZON89121266485h19'05''FS35RésultatsSa course
07/07/2018Fabrice LEDOGAR03616486h17'19''MV141RésultatsSa course
07/07/2018Olivier DOMINGUEZ801386485h21'56''MV115RésultatsSa course
07/07/2018Jérôme ROSET444286486h38'50''MS340RésultatsSa course
07/07/2018Eric LICHTFOUSE331806485h33'44''MV47RésultatsSa course
29/04/2018Olivier MARTINEZ0102123h15'46''MV12RésultatsSa course
02/07/2017Erwan JACOBI28846534h13'19''MS12RésultatsSa course
02/07/2017David MARTIN119746534h39'55''MS414RésultatsSa course
02/07/2017Catherine HOUSEAUX0263336535h24'24''FV31RésultatsSa course
19/06/2016Jean christophe DUCASSE02835017h05'33''MV331RésultatsSa course
19/06/2016David MARTIN119295015h44'22''MS48RésultatsSa course
19/06/2016Catherine HOUSEAUX0252995017h09'42''FV31RésultatsSa course
19/06/2016Frank MARMOLLE03035017h10'32''MV160RésultatsSa course
19/06/2016Erwan JACOBI288305015h45'07''MS12RésultatsSa course
19/06/2016Jil GUEGUEN CLOIX71354105017h48'17''FS27RésultatsSa course
19/06/2016Sebastien BOUJENAH01265016h20'20''MS225RésultatsSa course
19/06/2016Baptiste CLOIX851815016h37'52''MS233RésultatsSa course
19/06/2016Candice MIZON8991875016h40'30''FS24RésultatsSa course
19/06/2016François BOULESTEIX01965016h42'57''MS235RésultatsSa course
19/06/2016Olivier DOMINGUEZ802025016h43'40''MV137RésultatsSa course
19/05/2013Christian PARON-FRANCESCHINI0603944h52'08''MV29RésultatsSa course
19/05/2013Alexandra LOUISON02543944h49'10''ELF2RésultatsSa course
19/05/2012Nicolas FERNANDEZ7645434h20'24''ELM4RésultatsSa course
19/05/2012Emmanuel SPOIDEN105295434h45'20''MV14RésultatsSa course
19/05/2012Alexandra LOUISON02395434h49'56''ELF2RésultatsSa course
19/05/2012Olivier DOMINGUEZ80965435h07'50''MS420RésultatsSa course

Coureurs actuels du Club

Nathan MENANT
IPR : 304
Catégorie de niveau : Elite 1ère classe
Erwan JACOBI
IPR : 288
Catégorie de niveau : Elite 2ème classe
Brice HACQUART
IPR : 231
Catégorie de niveau : Elite 2ème classe
Sebastien RODRIGUEZ
IPR : 167
Catégorie de niveau : Elite 3ème classe
Maxime DUPARC
IPR : 128
Catégorie de niveau : Elite 3ème classe
Valentin MONTPIED
IPR : 97
Catégorie de niveau : 1ère catégorie
Thomas SUZON
IPR : 96
Catégorie de niveau : 1ère catégorie
Simon ROUSSE
IPR : 95
Catégorie de niveau : 1ère catégorie
Candice MIZON
IPR : 89
Catégorie de niveau : Elite 3ème classe
Aurélien DRUMEZ
IPR : 84
Catégorie de niveau : 2ème catégorie
Jules GAUTIER
IPR : 83
Catégorie de niveau : 2ème catégorie
Olivier DOMINGUEZ
IPR : 80
Catégorie de niveau : 2ème catégorie
Romain LACAILLE
IPR : 77
Catégorie de niveau : 2ème catégorie
Jil GUEGUEN CLOIX
IPR : 71
Catégorie de niveau : 1ère catégorie
Hubert PIALOT
IPR : 65
Catégorie de niveau : 3ème catégorie
Christelle PUCCI
IPR : 58
Catégorie de niveau : 3ème catégorie
Francois PARCHEMIN
IPR : 53
Catégorie de niveau : 4ème catégorie
Arthur RIVIERE
IPR : 49
Catégorie de niveau : 4ème catégorie
David TÉTART
IPR : 43
Catégorie de niveau : 4ème catégorie
Pascal LALLEMAND
IPR : 36
Catégorie de niveau : 4ème catégorie
Anthony PERON
IPR : 28
Catégorie de niveau : 5ème catégorie
Quentin GAUTHIER
IPR : 28
Catégorie de niveau : 5ème catégorie
Gaëlle NARDIN
IPR : 13
Catégorie de niveau : 5ème catégorie
Emmanuelle DEL NEGRO
IPR : 8
Catégorie de niveau : 5ème catégorie
Clémentine TIRARD
IPR : N/A
Catégorie de niveau : Non classée
Christophe DUMAS
IPR : N/A
Catégorie de niveau : Non classé
Jean christophe DUCASSE
IPR : N/A
Catégorie de niveau : Non classé
Théo CABARDOS
IPR : N/A
Catégorie de niveau : Non classé
Julien MONNIER
IPR : N/A
Catégorie de niveau : Non classé
Laurent TARLET
IPR : N/A
Catégorie de niveau : Non classé
Pauline AVRONSART
IPR : N/A
Catégorie de niveau : Non classée
François BOULESTEIX
IPR : N/A
Catégorie de niveau : Non classé
Clément PERISSE
IPR : N/A
Catégorie de niveau : Non classé
Florian LAUDICINA
IPR : N/A
Catégorie de niveau : Non classé
Benoit FAURE
IPR : N/A
Catégorie de niveau : Non classé
IPR : N/A
Catégorie de niveau :